Wind_Speed
54 54 57 61 63 58 51 42 38 33 31 30 32 34 44 53 61 70 73 76 77 75 72 66 63 64 64 64 60 57 57 54 53 53 51 47 45 44 43 45 36 31 31 28
59 59 59 62 61 56 53 37 33 29 25 23 24 25 28 32 46 62 71 76 79 77 76 70 68 66 67 67 66 62 61 61 57 54 56 54 53 52 52 48 47 45 37 26
57 60 60 61 59 56 50 43 29 27 23 20 18 18 22 25 30 49 62 69 76 77 78 75 72 70 71 70 70 68 67 65 61 59 58 56 55 55 54 50 53 43 39 31
64 62 61 56 56 52 47 43 36 26 24 22 21 16 17 18 20 30 45 55 66 72 74 76 76 76 76 75 75 73 70 69 67 64 63 62 61 59 58 57 53 52 38 37
67 62 58 56 53 47 46 41 38 32 23 20 19 17 13 12 11 12 30 33 32 53 69 77 77 78 80 80 80 78 77 74 72 70 67 66 65 62 63 60 56 53 44 43
66 64 57 55 52 51 44 42 36 33 24 18 14 16 14 12 9 10 7 31 41 30 31 63 78 78 81 82 83 82 80 79 77 74 72 70 70 65 63 60 58 55 48 44
65 61 58 55 53 51 49 42 40 31 25 21 18 14 13 12 12 9 11 14 28 41 44 37 59 76 79 83 84 83 83 82 80 78 76 76 71 70 67 65 61 59 53 49
64 58 53 56 51 49 48 47 42 35 26 26 22 16 13 11 10 8 9 10 20 23 30 43 45 47 72 80 85 86 85 84 83 82 80 77 76 73 71 67 62 62 58 52
58 53 52 48 50 48 44 44 44 39 29 24 17 15 13 10 7 9 8 8 14 19 20 19 27 42 53 64 78 86 90 88 87 87 84 83 76 73 73 70 67 64 60 55
54 53 53 51 46 46 43 41 39 37 34 25 21 15 10 7 5 6 5 3 7 19 21 17 16 18 27 45 60 73 85 94 93 89 90 88 82 78 76 73 70 65 64 60
49 53 53 50 50 43 42 37 37 32 29 28 23 18 11 8 6 5 3 2 1 4 11 14 18 19 25 34 42 54 72 86 95 96 96 94 85 80 79 76 73 68 64 61
48 51 48 46 44 44 41 37 32 30 25 20 20 19 16 9 5 1 4 4 3 2 4 7 9 12 17 20 26 43 57 72 83 96 101 95 92 86 81 79 75 70 67 63
45 50 45 45 42 42 38 37 33 27 24 22 19 18 17 12 10 7 6 4 3 3 2 4 7 7 8 9 15 26 37 48 69 82 95 96 98 93 90 84 78 74 70 66
41 48 47 43 38 41 36 31 33 31 29 27 24 20 20 16 13 10 9 6 7 7 5 5 4 5 6 7 7 8 21 33 47 64 74 85 92 94 94 88 83 77 72 69
38 45 43 42 41 37 33 27 28 31 30 27 26 19 17 15 15 16 15 12 11 10 6 2 1 4 5 3 3 3 11 19 35 44 54 70 73 89 94 89 85 81 76 74
35 39 40 39 40 33 31 30 34 36 30 27 26 25 19 15 14 13 15 17 16 15 13 10 8 11 11 6 1 7 18 19 21 29 42 52 58 68 75 79 80 76 77 71
32 36 37 34 34 28 28 29 30 34 33 29 26 22 18 19 20 20 20 17 16 14 13 13 15 17 22 11 5 11 11 14 18 23 34 41 46 45 48 47 48 52 54 49
28 33 34 33 29 24 22 24 23 27 31 28 28 24 21 19 18 18 17 17 19 18 17 17 19 20 19 16 18 9 10 10 11 19 32 45 45 43 35 30 41 50 50 49
26 30 34 30 23 17 16 17 22 26 29 27 25 25 25 24 22 20 20 20 22 23 22 24 20 20 17 16 13 8 3 6 0 11 32 48 51 44 42 45 47 51 50 58
29 34 29 14 18 15 15 17 26 30 31 28 26 27 28 27 25 29 36 38 30 33 31 25 14 15 23 22 21 21 7 5 7 26 40 51 40 37 24 49 38 47 51 55
30 34 28 13 15 19 27 34 34 35 32 34 32 30 28 30 33 31 33 37 42 39 37 39 30 25 24 30 30 28 28 16 16 23 38 27 28 45 30 54 42 40 54 56
30 27 16 18 20 26 27 29 29 30 30 26 30 30 33 34 43 48 46 47 49 52 40 32 31 25 24 16 21 22 28 20 29 31 24 33 28 21 22 15 39 22 40 50
27 18 13 21 22 23 28 25 26 26 28 24 28 28 28 31 37 39 41 44 45 46 46 46 46 26 22 18 28 13 20 16 23 26 16 23 9 13 12 21 26 21 29 40
21 13 22 29 24 23 19 23 24 23 19 22 26 26 24 26 30 36 40 39 40 38 38 36 32 33 17 15 19 19 26 27 34 19 28 16 10 5 20 23 23 19 15 16
22 18 22 26 30 20 18 18 19 22 22 24 23 23 22 18 20 26 29 34 35 36 28 23 29 28 27 22 18 20 23 23 32 30 31 18 19 21 14 7 15 13 15 18
16 23 25 25 24 22 18 16 16 19 23 24 26 22 19 18 20 20 23 24 26 24 20 19 20 24 25 24 22 22 18 12 13 15 12 11 16 17 16 12 10 13 18 19
20 24 22 22 21 22 21 20 19 20 19 16 19 18 20 24 21 17 18 19 16 14 15 18 19 18 18 18 18 18 18 17 15 14 11 9 7 6 8 5 3 3 4 7
Wind_Direction
349 347 341 339 342 340 335 325 315 306 294 282 273 264 249 241 233 230 230 232 233 233 234 231 228 228 229 229 227 226 228 228 226 225 228 229 228 228 231 238 242 248 254 255
344 344 343 343 344 344 347 336 331 321 307 294 287 281 269 251 233 227 224 225 228 228 227 228 227 226 226 227 228 226 227 228 224 225 227 228 229 230 231 231 232 233 234 229
343 344 345 346 348 347 348 347 338 332 321 310 300 292 286 278 243 226 225 224 223 224 223 222 222 221 222 223 226 225 226 228 225 225 228 228 231 233 237 234 236 238 238 236
346 347 345 348 349 349 346 350 351 333 326 320 316 310 299 295 279 239 223 226 227 224 222 218 218 218 218 220 223 226 225 226 226 225 227 230 231 233 239 240 242 241 241 240
348 350 350 351 348 353 349 344 348 348 325 316 313 314 308 317 322 285 225 213 213 231 227 220 215 215 216 218 220 224 226 227 226 228 228 229 230 233 236 239 241 243 239 241
354 355 348 349 351 354 354 349 346 350 339 324 316 306 310 314 324 313 253 221 215 209 226 226 219 215 214 216 218 222 225 226 227 226 228 229 229 229 234 239 243 244 241 243
355 354 356 354 357 353 354 356 352 348 347 330 319 318 307 302 308 304 289 242 227 227 226 218 225 219 215 216 216 220 223 226 227 227 227 228 228 230 230 233 236 240 237 238
357 351 351 353 356 356 355 359 359 355 346 348 342 334 326 313 309 310 294 275 229 228 239 238 231 224 221 216 216 217 221 224 226 228 228 229 227 230 233 231 232 236 239 237
356 351 351 355 354 355 358 357 1 360 356 354 350 335 322 320 304 307 300 266 227 203 219 235 241 241 234 224 221 217 218 223 225 227 229 231 228 232 232 234 234 236 241 241
356 351 346 348 349 349 355 355 0 5 2 357 350 337 320 318 294 300 342 276 213 218 223 230 231 226 233 234 230 225 221 221 225 227 229 231 231 229 234 233 234 235 238 241
357 354 353 352 348 347 349 356 359 360 8 2 354 351 338 317 328 300 349 19 63 201 224 231 235 234 242 240 233 232 228 224 224 228 228 231 230 231 234 238 238 236 237 238
355 352 353 356 352 348 347 349 0 356 360 18 17 7 8 1 337 298 302 331 353 169 194 197 211 221 234 244 239 238 234 232 230 226 227 230 231 232 233 237 237 239 239 240
353 350 353 359 359 359 356 359 359 358 354 5 8 6 17 39 38 29 29 42 121 158 190 201 193 197 199 223 213 229 237 236 237 232 227 228 232 233 232 233 236 238 241 243
348 347 355 360 358 2 4 0 10 6 1 355 13 18 24 32 46 59 71 82 100 92 94 119 145 173 177 175 223 241 236 234 238 238 233 231 232 236 235 234 235 237 240 243
347 353 356 356 5 2 5 15 20 19 23 26 28 33 39 41 47 42 44 45 44 36 25 350 330 290 263 283 201 266 264 241 236 234 232 234 232 233 235 236 237 238 240 243
351 355 360 356 3 4 21 29 33 25 22 24 33 33 33 32 27 16 13 14 17 19 16 13 359 357 0 22 345 270 259 270 255 221 221 227 231 234 235 237 239 238 240 237
353 357 356 357 357 358 9 22 29 30 27 29 33 35 37 37 37 34 32 31 34 33 34 40 27 12 10 21 199 261 292 284 265 228 211 200 206 214 222 228 230 231 232 224
354 1 4 358 354 351 6 16 21 27 23 27 32 31 35 33 29 25 28 23 28 30 29 31 25 13 10 21 19 356 298 270 276 226 214 189 179 178 185 197 209 209 213 212
353 4 5 356 356 350 0 14 23 27 29 29 34 36 38 41 44 45 43 44 48 49 52 48 45 32 12 13 5 351 234 226 140 194 190 168 159 153 178 181 197 206 215 215
6 14 6 7 356 0 16 41 52 50 46 42 43 52 54 46 55 60 58 53 56 56 51 58 65 41 25 17 26 23 324 206 146 169 171 158 158 164 159 178 186 208 209 206
10 4 0 28 46 67 66 64 62 61 63 61 58 61 64 66 63 62 68 64 59 57 61 64 60 54 43 44 39 29 33 67 110 166 167 150 152 171 178 184 187 208 208 210
16 353 5 75 78 73 63 64 60 58 64 61 63 75 69 75 71 73 67 63 60 58 68 85 67 57 41 61 38 51 39 109 141 147 134 131 148 141 179 193 208 233 215 212
10 357 26 62 81 72 56 56 54 67 66 73 57 59 71 75 65 69 70 66 60 59 58 60 51 73 51 52 32 51 58 105 106 96 96 100 94 177 200 173 173 179 192 209
359 2 39 47 66 64 59 52 53 53 57 52 52 61 61 60 65 66 67 65 70 60 57 51 52 66 74 41 66 97 110 125 129 138 142 137 112 218 157 159 167 176 168 197
347 8 47 47 48 55 66 72 69 59 49 32 24 28 39 48 53 56 59 59 56 65 53 37 39 50 65 90 95 94 114 118 109 100 113 172 174 130 129 177 198 225 207 227
11 31 40 39 37 40 48 58 59 61 47 23 9 12 359 14 30 35 46 54 55 57 54 40 43 52 54 64 65 58 64 91 91 87 101 114 128 156 166 165 180 198 211 214
32 35 41 46 41 40 38 37 37 49 47 40 23 3 358 357 2 20 32 41 37 27 24 17 15 18 27 42 43 37 38 43 46 59 73 77 92 107 153 187 234 234 254 248
Height
5687 5675 5662 5648 5634 5618 5602 5591 5584 5579 5579 5581 5581 5583 5586 5593 5601 5612 5625 5637 5647 5659 5670 5681 5691 5701 5709 5717 5726 5736 5744 5751 5761 5769 5773 5779 5786 5789 5793 5795 5807 5813 5816 5821
5682 5669 5654 5640 5626 5611 5597 5586 5577 5572 5570 5569 5570 5570 5570 5573 5579 5586 5597 5607 5620 5634 5648 5660 5671 5683 5691 5700 5710 5721 5728 5735 5748 5756 5761 5766 5771 5776 5780 5790 5793 5797 5807 5815
5675 5662 5648 5634 5620 5607 5594 5583 5575 5569 5565 5563 5563 5562 5562 5562 5563 5568 5576 5584 5594 5608 5623 5637 5649 5662 5673 5683 5692 5703 5711 5721 5733 5745 5752 5755 5761 5766 5770 5780 5781 5795 5800 5811
5669 5656 5642 5629 5616 5603 5592 5581 5573 5566 5562 5559 5556 5557 5556 5554 5552 5555 5562 5569 5575 5585 5598 5614 5626 5641 5652 5665 5674 5684 5696 5705 5717 5728 5735 5742 5749 5756 5760 5767 5776 5779 5799 5802
5664 5650 5637 5625 5612 5600 5588 5578 5571 5564 5558 5554 5552 5551 5550 5549 5548 5548 5551 5557 5562 5568 5576 5591 5605 5618 5632 5644 5656 5667 5677 5689 5699 5711 5721 5729 5736 5745 5750 5756 5765 5771 5786 5791
5662 5647 5633 5621 5609 5597 5587 5577 5568 5561 5555 5551 5549 5546 5545 5545 5544 5544 5543 5546 5549 5555 5562 5570 5583 5598 5612 5626 5638 5649 5660 5671 5681 5694 5704 5714 5722 5736 5742 5749 5754 5763 5773 5784
5660 5645 5631 5618 5607 5596 5586 5576 5567 5560 5554 5549 5546 5544 5541 5541 5540 5541 5540 5540 5543 5548 5552 5558 5567 5579 5594 5607 5622 5633 5644 5653 5665 5676 5687 5695 5714 5719 5728 5733 5743 5750 5763 5770
5658 5644 5630 5617 5606 5596 5586 5576 5567 5559 5553 5548 5544 5541 5539 5538 5538 5537 5536 5536 5539 5543 5548 5553 5560 5568 5578 5590 5603 5618 5628 5636 5647 5657 5671 5686 5695 5705 5714 5723 5735 5739 5748 5761
5657 5643 5631 5618 5606 5596 5586 5577 5568 5559 5553 5549 5544 5540 5537 5536 5535 5534 5533 5533 5535 5539 5544 5547 5552 5559 5568 5578 5587 5599 5612 5619 5629 5641 5654 5662 5684 5692 5702 5712 5722 5730 5738 5749
5655 5644 5631 5619 5607 5597 5588 5580 5571 5562 5554 5548 5543 5539 5536 5534 5534 5533 5532 5533 5534 5536 5539 5543 5548 5553 5557 5566 5575 5586 5594 5602 5614 5625 5635 5646 5665 5679 5686 5699 5712 5718 5726 5736
5654 5644 5632 5620 5609 5598 5590 5582 5574 5566 5558 5550 5543 5538 5535 5533 5533 5533 5534 5534 5535 5536 5538 5540 5542 5546 5550 5555 5563 5570 5578 5589 5599 5609 5618 5628 5653 5665 5676 5684 5693 5706 5715 5725
5654 5644 5632 5622 5610 5600 5591 5583 5575 5568 5561 5555 5549 5542 5537 5535 5533 5533 5533 5533 5534 5534 5535 5538 5539 5542 5543 5547 5554 5559 5567 5572 5583 5594 5607 5622 5634 5647 5660 5667 5680 5692 5702 5712
5653 5643 5632 5623 5614 5603 5593 5585 5576 5569 5562 5557 5551 5547 5543 5539 5537 5535 5534 5534 5533 5534 5534 5535 5537 5539 5541 5542 5546 5547 5553 5559 5566 5578 5597 5610 5618 5629 5642 5654 5668 5679 5688 5698
5653 5642 5634 5625 5616 5606 5596 5588 5580 5572 5565 5559 5555 5550 5547 5543 5541 5539 5537 5536 5536 5536 5536 5536 5537 5537 5539 5540 5540 5542 5544 5546 5556 5563 5582 5597 5608 5614 5627 5641 5657 5669 5678 5686
5652 5643 5635 5626 5617 5609 5600 5591 5583 5576 5571 5564 5559 5554 5551 5548 5545 5543 5541 5540 5540 5540 5539 5539 5538 5538 5538 5539 5539 5540 5539 5541 5544 5556 5563 5574 5594 5604 5615 5628 5643 5656 5669 5678
5652 5645 5636 5628 5619 5612 5606 5596 5588 5580 5574 5568 5564 5559 5554 5551 5549 5547 5545 5543 5542 5541 5540 5539 5539 5538 5536 5537 5537 5538 5536 5536 5537 5542 5548 5562 5577 5592 5606 5620 5633 5645 5655 5669
5651 5645 5637 5628 5621 5615 5608 5601 5593 5585 5580 5574 5569 5564 5560 5556 5553 5551 5550 5547 5546 5545 5543 5542 5539 5538 5535 5536 5535 5535 5532 5531 5532 5534 5538 5551 5563 5580 5594 5611 5624 5635 5647 5660
5651 5645 5636 5628 5622 5617 5613 5606 5598 5590 5584 5579 5573 5569 5565 5562 5559 5556 5553 5550 5549 5548 5547 5545 5542 5540 5538 5536 5535 5533 5531 5528 5527 5527 5532 5543 5556 5572 5590 5606 5618 5628 5637 5651
5652 5645 5636 5629 5625 5621 5616 5609 5602 5595 5591 5584 5579 5574 5571 5567 5564 5561 5557 5555 5553 5551 5550 5548 5546 5544 5540 5538 5534 5531 5529 5528 5528 5527 5533 5544 5558 5573 5591 5599 5609 5618 5629 5638
5650 5645 5640 5634 5629 5625 5620 5614 5606 5599 5595 5591 5586 5582 5578 5576 5572 5568 5564 5561 5558 5556 5554 5551 5548 5547 5544 5539 5534 5531 5528 5526 5531 5536 5543 5551 5563 5571 5587 5598 5603 5613 5622 5630
5652 5646 5641 5636 5633 5630 5623 5615 5611 5608 5605 5600 5596 5592 5587 5585 5580 5575 5570 5568 5565 5561 5560 5557 5555 5553 5551 5549 5544 5539 5534 5532 5539 5546 5551 5559 5568 5578 5582 5595 5598 5609 5617 5624
5655 5650 5646 5639 5635 5629 5627 5622 5619 5617 5614 5611 5606 5602 5599 5595 5588 5583 5582 5578 5574 5570 5569 5566 5564 5562 5561 5559 5555 5553 5549 5551 5555 5560 5564 5573 5578 5586 5589 5597 5605 5607 5606 5616
5660 5656 5650 5640 5636 5634 5633 5631 5628 5626 5624 5621 5616 5613 5609 5605 5600 5593 5588 5586 5584 5582 5577 5575 5573 5571 5573 5570 5567 5567 5566 5567 5569 5572 5575 5579 5583 5589 5597 5599 5602 5602 5601 5609
5667 5661 5652 5644 5641 5639 5639 5638 5635 5633 5631 5628 5624 5622 5619 5616 5611 5605 5598 5597 5592 5590 5589 5587 5585 5584 5581 5581 5579 5575 5573 5574 5574 5580 5584 5584 5590 5593 5595 5595 5596 5597 5597 5606
5668 5665 5656 5653 5649 5647 5645 5642 5641 5639 5637 5635 5633 5629 5627 5624 5619 5613 5609 5603 5600 5598 5601 5600 5597 5595 5593 5591 5589 5586 5585 5584 5582 5584 5585 5589 5596 5595 5593 5593 5596 5597 5601 5605
5670 5662 5659 5656 5655 5653 5651 5648 5644 5641 5638 5638 5636 5634 5633 5628 5623 5620 5615 5613 5610 5610 5609 5607 5606 5603 5600 5598 5598 5596 5595 5594 5593 5593 5594 5594 5594 5594 5593 5594 5595 5596 5597 5599
5672 5668 5666 5663 5662 5658 5655 5652 5648 5644 5642 5642 5640 5638 5633 5631 5627 5624 5620 5617 5617 5616 5615 5612 5610 5608 5607 5606 5603 5602 5600 5599 5598 5597 5597 5597 5597 5596 5596 5596 5595 5595 5596 5597